Weather History for Tomahawk, WI

Change the Weather History Date:

Friday, October 28, 2011

  Actual Average (KRHI) Record (KRHI)
Temperature  
Mean Temperature 34 °F 40 °F  
Max Temperature 47 °F 48 °F 72 °F (1948)
Min Temperature 20 °F 31 °F 12 °F (1933)
Degree Days  
Heating Degree Days 32 26  
Month to date heating degree days 583  
Since 1 July heating degree days 1015  
Cooling Degree Days 0 0  
Month to date cooling degree days 0  
Year to date cooling degree days 259  
Moisture  
Dew Point 28 °F    
Average Humidity 84    
Maximum Humidity 96    
Minimum Humidity 49    
Precipitation  
Precipitation 0.02 in 0.08 in 1.14 in (1973)
Month to date precipitation 2.83  
Year to date precipitation 27.91  
Snow  
Snow 0.00 in - 3.00 in (2003)
Month to date snowfall  
Since 1 July snowfall  
Since 1 September snowfall  
Snow Depth -    
Sea Level Pressure  
Sea Level Pressure 30.02 in    
Wind  
Wind Speed 1 mph (SSW)    
Max Wind Speed 10 mph    
Max Gust Speed 18 mph    
Visibility 8 miles    
Events Rain    
T = Trace of Precipitation, MM = Missing Value Source: NWS Daily Summary

Daily Weather History Graph

Daily Weather History Graph

Search for Another Location

Airport:

Trip Planner

Search our weather history database for the weather conditions in past years. The results will help you decide how hot, cold, wet, or windy it might be!

Date:

Astronomy

Oct. 28, 2011 Rise Set
Actual Time 7:32 AM CDT 5:52 PM CDT
Civil Twilight 7:02 AM CDT 6:23 PM CDT
Nautical Twilight 6:27 AM CDT 6:57 PM CDT
Astronomical Twilight 5:53 AM CDT 7:32 PM CDT
Moon 9:57 AM CDT (10/28) 7:06 PM CDT (10/28)
Length of Visible Light 11h 21m
Length of Day
10h 19m
Waxing Crescent, 5% of the Moon is Illuminated
Oct 28
Waxing Crescent
Nov 2
First Quarter
Nov 10
Full
Nov 18
Last Quarter
Nov 25
New

Hourly Weather History & Observations

Time (CDT) Temp. Windchill Dew Point Humidity Pressure Visibility Wind Dir Wind Speed Gust Speed Precip Events Conditions
12:15 AM 25.5 °F - 24.3 °F 95% 30.08 in 5.0 mi Calm Calm - N/A   Clear
12:35 AM 25.0 °F - 23.5 °F 94% 30.08 in 3.0 mi Calm Calm - N/A   Clear
12:55 AM 24.1 °F - 22.5 °F 94% 30.08 in 2.0 mi Calm Calm - N/A   Mist
1:15 AM 24.1 °F - 22.6 °F 94% 30.08 in 10.0 mi Calm Calm - N/A   Clear
1:35 AM 24.6 °F - 23.0 °F 94% 30.07 in 10.0 mi Calm Calm - N/A   Clear
2:15 AM 23.9 °F - 22.5 °F 94% 30.07 in 10.0 mi Calm Calm - N/A   Clear
2:35 AM 24.1 °F - 22.6 °F 94% 30.07 in 10.0 mi Calm Calm - N/A   Clear
3:15 AM 21.9 °F - 20.1 °F 93% 30.08 in 10.0 mi Calm Calm - N/A   Mostly Cloudy
3:35 AM 23.7 °F - 22.3 °F 94% 30.07 in 7.0 mi Calm Calm - N/A   Overcast
4:15 AM 23.7 °F - 22.1 °F 94% 30.07 in 10.0 mi Calm Calm - N/A   Scattered Clouds
4:35 AM 23.5 °F - 21.9 °F 94% 30.07 in 10.0 mi Calm Calm - N/A   Scattered Clouds
4:55 AM 24.1 °F - 22.6 °F 94% 30.07 in 10.0 mi Calm Calm - N/A   Scattered Clouds
5:15 AM 23.5 °F - 21.9 °F 94% 30.07 in 10.0 mi Calm Calm - N/A   Clear
5:35 AM 23.5 °F - 22.1 °F 94% 30.07 in 10.0 mi Calm Calm - N/A   Clear
5:55 AM 23.0 °F - 21.4 °F 94% 30.07 in 10.0 mi Calm Calm - N/A   Clear
6:15 AM 23.2 °F - 21.6 °F 94% 30.07 in 10.0 mi Calm Calm - N/A   Clear
6:35 AM 22.8 °F - 21.2 °F 93% 30.07 in 10.0 mi Calm Calm - N/A   Clear
6:55 AM 22.6 °F - 21.0 °F 93% 30.07 in 10.0 mi Calm Calm - N/A   Clear
7:15 AM 21.4 °F - 19.8 °F 93% 30.07 in 10.0 mi Calm Calm - N/A   Clear
7:35 AM 20.5 °F - 18.5 °F 92% 30.07 in 10.0 mi Calm Calm - N/A   Clear
7:55 AM 21.4 °F - 19.6 °F 93% 30.06 in 10.0 mi Calm Calm - N/A   Clear
8:15 AM 21.9 °F - 20.1 °F 93% 30.07 in 10.0 mi Calm Calm - N/A   Mostly Cloudy
9:15 AM 29.7 °F - 28.4 °F 95% 30.07 in 3.0 mi Calm Calm - N/A   Overcast
9:35 AM 30.6 °F - 29.3 °F 95% 30.06 in 3.0 mi Calm Calm - N/A   Overcast
9:55 AM 31.5 °F - 30.6 °F 96% 30.06 in 3.0 mi Calm Calm - N/A   Overcast
10:15 AM 32.7 °F - 31.8 °F 96% 30.06 in 5.0 mi Calm Calm - N/A   Scattered Clouds
10:35 AM 34.3 °F 31.4 °F 32.7 °F 94% 30.05 in 7.0 mi South 3.5 mph - N/A   Mostly Cloudy
10:55 AM 35.6 °F - 32.9 °F 90% 30.05 in 7.0 mi Calm Calm - N/A   Overcast
11:15 AM 37.2 °F - 33.3 °F 86% 30.04 in 10.0 mi Calm Calm - N/A   Overcast
11:35 AM 38.7 °F 35.2 °F 32.7 °F 79% 30.04 in 10.0 mi South 4.6 mph - N/A   Mostly Cloudy
11:55 AM 41.7 °F 38.8 °F 32.7 °F 70% 30.03 in 10.0 mi SSE 4.6 mph - N/A   Scattered Clouds
12:15 PM 43.2 °F 40.5 °F 31.5 °F 63% 30.02 in 10.0 mi SSW 4.6 mph - N/A   Mostly Cloudy
12:35 PM 44.6 °F 43.1 °F 31.5 °F 60% 30.01 in 10.0 mi SSW 3.5 mph - N/A   Scattered Clouds
12:55 PM 46.4 °F 44.3 °F 29.3 °F 51% 30.00 in 10.0 mi SSW 4.6 mph - N/A   Mostly Cloudy
1:15 PM 47.1 °F - 28.6 °F 49% 29.99 in 10.0 mi SSW 6.9 mph - N/A   Overcast
1:35 PM 46.4 °F 41.5 °F 28.2 °F 49% 29.99 in 10.0 mi WSW 10.4 mph - N/A   Overcast
1:55 PM 45.3 °F 43.0 °F 28.9 °F 53% 29.98 in 10.0 mi SW 4.6 mph 18.4 mph N/A   Overcast
2:15 PM 44.6 °F 40.2 °F 29.1 °F 55% 29.98 in 10.0 mi SSW 8.1 mph - N/A   Overcast
2:35 PM 45.0 °F - 29.7 °F 55% 29.97 in 10.0 mi Calm Calm - N/A   Mostly Cloudy
2:55 PM 45.5 °F 43.2 °F 29.8 °F 54% 29.96 in 10.0 mi SSW 4.6 mph - N/A   Overcast
3:15 PM 45.5 °F 43.2 °F 29.8 °F 54% 29.96 in 10.0 mi SSW 4.6 mph - N/A   Overcast
3:35 PM 44.6 °F 40.7 °F 30.6 °F 58% 29.97 in 10.0 mi South 6.9 mph - N/A Rain Rain
3:55 PM 41.7 °F 38.8 °F 32.2 °F 69% 29.98 in 7.0 mi WSW 4.6 mph 18.4 mph N/A   Drizzle
4:15 PM 39.7 °F - 33.3 °F 78% 29.98 in 10.0 mi Calm Calm - N/A   Drizzle
4:35 PM 39.6 °F - 34.3 °F 82% 29.97 in 10.0 mi Calm Calm - N/A   Overcast
4:55 PM 39.7 °F - 35.2 °F 84% 29.97 in 10.0 mi Calm Calm - N/A   Overcast
5:15 PM 39.9 °F - 35.1 °F 83% 29.97 in 10.0 mi Calm Calm - N/A   Overcast
5:35 PM 39.6 °F - 34.5 °F 82% 29.97 in 10.0 mi Calm Calm - N/A   Overcast
5:55 PM 37.9 °F - 33.8 °F 85% 29.97 in 10.0 mi Calm Calm - N/A   Overcast
6:15 PM 36.0 °F - 32.9 °F 89% 29.97 in 10.0 mi Calm Calm - N/A   Scattered Clouds
6:35 PM 34.0 °F - 31.8 °F 92% 29.97 in 10.0 mi Calm Calm - N/A   Scattered Clouds
6:55 PM 32.4 °F - 30.9 °F 94% 29.97 in 7.0 mi Calm Calm - N/A   Clear
7:15 PM 31.1 °F - 29.5 °F 94% 29.97 in 7.0 mi Calm Calm - N/A   Clear
7:35 PM 30.6 °F - 29.3 °F 95% 29.97 in 1.5 mi Calm Calm - N/A   Mist
8:15 PM 28.8 °F - 27.7 °F 96% 29.97 in 5.0 mi Calm Calm - N/A   Scattered Clouds
8:35 PM 28.6 °F - 27.3 °F 95% 29.98 in 5.0 mi Calm Calm - N/A   Overcast
8:55 PM 31.5 °F - 30.4 °F 96% 29.99 in 4.0 mi Calm Calm - 0.01 in Rain Light Freezing Rain
9:15 PM 34.3 °F 27.7 °F 32.7 °F 94% 30.00 in 10.0 mi WNW 8.1 mph - N/A Rain Light Rain
9:35 PM 34.7 °F - 32.2 °F 91% 29.98 in 10.0 mi Calm Calm - 0.01 in Rain Light Rain
9:55 PM 33.8 °F - 31.8 °F 92% 29.98 in 7.0 mi Calm Calm - 0.01 in   Scattered Clouds
10:15 PM 32.4 °F - 31.1 °F 95% 29.97 in 4.0 mi Calm Calm - N/A   Clear
10:35 PM 31.5 °F - 30.2 °F 95% 29.97 in 5.0 mi Calm Calm - N/A   Mostly Cloudy
10:55 PM 31.6 °F - 30.4 °F 95% 29.97 in 5.0 mi Calm Calm - N/A   Overcast
11:15 PM 31.8 °F - 30.7 °F 96% 29.96 in 7.0 mi Calm Calm - N/A   Overcast
11:35 PM 31.1 °F - 30.0 °F 96% 29.97 in 4.0 mi Calm Calm - N/A   Overcast
11:55 PM 30.6 °F - 29.5 °F 96% 29.96 in 3.0 mi Calm Calm - N/A   Scattered Clouds